User: anonymous   Login
Location: Unspecified
(0.0000°N, 0.0000°E)
Time: 04:13:59
(UTC+00:00)
Language:

USA 184 - Orbit

View from above orbital plane
View from above orbital plane
View from above satellite
View from above satellite

Ground track
Ground track

The orbit data is extracted from the following two-line orbital elements,

1 29249U 06027A   14145.52920128 0.00000579  00000-0  00000-0 0    09
2 29249  63.6265  64.4309 7016165 267.8964  17.5799  2.00641625    04
Epoch (UTC): 25 May 2014 12:42:02
Eccentricity: 0.7016165
inclination: 63.6265°
perigee height: 1545 km
apogee height: 38805 km
right ascension of ascending node: 64.4309°
argument of perigee: 267.8964°
revolutions per day: 2.00641625
mean anomaly at epoch: 17.5799°
orbit number at epoch: 0

The dashed part of the orbit path shows where the satellite is in the earth's shadow,  

DLR